Location: Lafig�re
(44.4503°N, 4.0357°E)
Time: 00:08:42
(UTC+00:00)

Cosmos 2150 Rocket - Pass Details

Date: 25 January 2021
Orbit: 748 x 808 km, 74.0° (Epoch: 06 March)

Event Time Altitude Azimuth Distance (km) Brightness Sun altitude
Rises 18:36:54 0° 171° (S) 3,179 7.2 -20.1°
Reaches altitude 10° 18:39:28 10° 161° (SSE) 2,262 6.3 -20.6°
Enters shadow 18:41:19 20° 146° (SE) 1,698 5.5 -20.9°
